Time,TemperatureF,DewpointF,PressureIn,WindDirection,WindDirectionDegrees,WindSpeedMPH,WindSpeedGustMPH,Humidity,HourlyPrecipIn,Conditions,Clouds,dailyrainin,SolarRadiationWatts/m^2,SoftwareType,DateUTC
2013-02-03 00:01:00,21.9,21.4,30.03,NNE,26,1.0,1.0,98,0.00,,,0.00,0,Wunderground v.1.15,2013-02-03 05:01:00,
2013-02-03 00:04:00,21.9,21.4,30.03,NNE,25,1.0,1.0,98,0.00,,,0.00,0,Wunderground v.1.15,2013-02-03 05:04:00,
2013-02-03 00:09:00,22.1,21.6,30.03,NNE,24,1.0,2.0,98,0.00,,,0.00,0,Wunderground v.1.15,2013-02-03 05:09:00,
2013-02-03 00:11:00,22.1,21.6,30.03,NNE,26,1.0,1.0,98,0.00,,,0.00,0,Wunderground v.1.15,2013-02-03 05:11:00,
2013-02-03 00:16:00,22.2,21.7,30.03,NNE,25,0.0,1.0,98,0.00,,,0.00,0,Wunderground v.1.15,2013-02-03 05:16:00,
2013-02-03 00:22:00,22.4,21.9,30.03,NNE,24,0.0,1.0,98,0.00,,,0.00,0,Wunderground v.1.15,2013-02-03 05:22:00,
2013-02-03 00:27:00,22.6,22.1,30.03,NNE,28,1.0,3.0,98,0.00,,,0.00,0,Wunderground v.1.15,2013-02-03 05:27:00,
2013-02-03 00:32:00,22.8,22.3,30.02,NNE,26,2.0,2.0,98,0.00,,,0.00,0,Wunderground v.1.15,2013-02-03 05:32:00,
2013-02-03 00:38:00,23.2,23.0,30.02,NNE,24,0.0,2.0,99,0.00,,,0.00,0,Wunderground v.1.15,2013-02-03 05:38:00,
2013-02-03 00:43:00,23.2,22.7,30.02,NNE,26,0.0,0.0,98,0.00,,,0.00,0,Wunderground v.1.15,2013-02-03 05:43:00,
2013-02-03 00:48:00,23.2,22.7,30.02,NNE,24,0.0,0.0,98,0.00,,,0.00,0,Wunderground v.1.15,2013-02-03 05:48:00,
2013-02-03 00:53:00,23.3,22.8,30.02,NNE,26,0.0,0.0,98,0.00,,,0.00,0,Wunderground v.1.15,2013-02-03 05:53:00,
2013-02-03 00:59:00,23.2,22.7,30.02,NNE,26,0.0,0.0,98,0.00,,,0.00,0,Wunderground v.1.15,2013-02-03 05:59:00,
2013-02-03 01:05:00,23.3,22.8,30.01,NNE,24,0.0,0.0,98,0.00,,,0.00,0,Wunderground v.1.15,2013-02-03 06:05:00,
2013-02-03 01:10:00,23.4,22.9,30.01,NNE,26,0.0,0.0,98,0.00,,,0.00,0,Wunderground v.1.15,2013-02-03 06:10:00,
2013-02-03 01:15:00,23.4,22.9,30.01,NNE,26,0.0,0.0,98,0.00,,,0.00,0,Wunderground v.1.15,2013-02-03 06:15:00,
2013-02-03 01:21:00,23.6,23.1,30.01,NNE,26,0.0,0.0,98,0.00,,,0.00,0,Wunderground v.1.15,2013-02-03 06:21:00,
2013-02-03 01:26:00,23.6,23.1,30.01,NNE,26,0.0,0.0,98,0.00,,,0.00,0,Wunderground v.1.15,2013-02-03 06:26:00,
2013-02-03 01:31:00,23.8,23.3,30.01,NNE,26,0.0,0.0,98,0.00,,,0.00,0,Wunderground v.1.15,2013-02-03 06:31:00,
2013-02-03 01:37:00,24.0,23.5,30.00,NNE,24,0.0,0.0,98,0.00,,,0.00,0,Wunderground v.1.15,2013-02-03 06:37:00,
2013-02-03 01:42:00,24.2,23.5,30.00,NNE,26,0.0,0.0,97,0.00,,,0.00,0,Wunderground v.1.15,2013-02-03 06:42:00,
2013-02-03 01:47:00,24.2,23.5,30.00,NNE,26,0.0,0.0,97,0.00,,,0.00,0,Wunderground v.1.15,2013-02-03 06:47:00,
2013-02-03 01:53:00,24.3,23.6,30.00,NNE,26,0.0,0.0,97,0.00,,,0.00,0,Wunderground v.1.15,2013-02-03 06:53:00,
2013-02-03 01:58:00,24.6,23.9,30.00,NNE,26,0.0,0.0,97,0.00,,,0.00,0,Wunderground v.1.15,2013-02-03 06:58:00,
2013-02-03 02:04:00,24.8,24.1,30.00,NNE,26,0.0,0.0,97,0.00,,,0.00,0,Wunderground v.1.15,2013-02-03 07:04:00,
2013-02-03 02:09:00,25.0,24.3,29.99,NNE,26,0.0,0.0,97,0.00,,,0.00,0,Wunderground v.1.15,2013-02-03 07:09:00,
2013-02-03 02:15:00,24.9,23.9,29.99,NNE,27,0.0,0.0,96,0.00,,,0.00,0,Wunderground v.1.15,2013-02-03 07:15:00,
2013-02-03 02:20:00,24.9,23.9,29.99,NNE,25,0.0,0.0,96,0.00,,,0.00,0,Wunderground v.1.15,2013-02-03 07:20:00,
2013-02-03 02:25:00,24.9,23.9,29.99,NNE,27,0.0,0.0,96,0.00,,,0.01,0,Wunderground v.1.15,2013-02-03 07:25:00,
2013-02-03 02:31:00,24.8,24.1,29.99,NNE,26,0.0,0.0,97,0.00,,,0.01,0,Wunderground v.1.15,2013-02-03 07:31:00,
2013-02-03 02:36:00,24.9,24.2,29.98,NNE,25,0.0,0.0,97,0.00,,,0.01,0,Wunderground v.1.15,2013-02-03 07:36:00,
2013-02-03 02:41:00,25.1,24.1,29.98,NNE,26,0.0,0.0,96,0.00,,,0.01,0,Wunderground v.1.15,2013-02-03 07:41:00,
2013-02-03 02:47:00,25.2,24.2,29.98,NNE,26,0.0,0.0,96,0.00,,,0.01,0,Wunderground v.1.15,2013-02-03 07:47:00,
2013-02-03 02:52:00,25.3,24.3,29.98,NNE,26,0.0,0.0,96,0.00,,,0.01,0,Wunderground v.1.15,2013-02-03 07:52:00,
2013-02-03 02:57:00,25.3,24.3,29.98,NNE,24,0.0,0.0,96,0.00,,,0.01,0,Wunderground v.1.15,2013-02-03 07:57:00,
2013-02-03 03:03:00,25.0,24.0,29.97,NNE,25,0.0,0.0,96,0.00,,,0.01,0,Wunderground v.1.15,2013-02-03 08:03:00,
2013-02-03 03:09:00,24.8,23.8,29.97,NNE,26,0.0,0.0,96,0.00,,,0.01,0,Wunderground v.1.15,2013-02-03 08:09:00,
2013-02-03 03:14:00,24.6,23.9,29.97,NNE,26,0.0,0.0,97,0.00,,,0.01,0,Wunderground v.1.15,2013-02-03 08:14:00,
2013-02-03 03:19:00,24.7,24.0,29.97,NNE,26,0.0,0.0,97,0.00,,,0.01,0,Wunderground v.1.15,2013-02-03 08:19:00,
2013-02-03 03:24:00,24.7,24.0,29.97,NNE,26,0.0,0.0,97,0.00,,,0.01,0,Wunderground v.1.15,2013-02-03 08:24:00,
2013-02-03 03:30:00,24.7,24.0,29.96,NNE,27,0.0,0.0,97,0.00,,,0.01,0,Wunderground v.1.15,2013-02-03 08:30:00,
2013-02-03 03:35:00,24.7,24.0,29.96,NNE,26,0.0,0.0,97,0.00,,,0.01,0,Wunderground v.1.15,2013-02-03 08:35:00,
2013-02-03 03:41:00,24.9,24.2,29.96,NNE,26,0.0,0.0,97,0.00,,,0.01,0,Wunderground v.1.15,2013-02-03 08:41:00,
2013-02-03 03:46:00,25.0,24.0,29.95,NNE,26,0.0,0.0,96,0.00,,,0.01,0,Wunderground v.1.15,2013-02-03 08:46:00,
2013-02-03 03:51:00,24.9,23.9,29.95,NNE,26,0.0,0.0,96,0.00,,,0.01,0,Wunderground v.1.15,2013-02-03 08:51:00,
2013-02-03 03:57:00,24.9,23.9,29.95,NNE,25,0.0,0.0,96,0.00,,,0.01,0,Wunderground v.1.15,2013-02-03 08:57:00,
2013-02-03 04:02:00,24.9,23.9,29.95,NNE,27,0.0,0.0,96,0.00,,,0.01,0,Wunderground v.1.15,2013-02-03 09:02:00,
2013-02-03 04:08:00,24.9,23.9,29.94,NNE,26,0.0,0.0,96,0.00,,,0.01,0,Wunderground v.1.15,2013-02-03 09:08:00,
2013-02-03 04:13:00,24.8,23.8,29.94,NNE,26,0.0,0.0,96,0.00,,,0.01,0,Wunderground v.1.15,2013-02-03 09:13:00,
2013-02-03 04:19:00,24.9,23.9,29.94,NNE,26,0.0,0.0,96,0.00,,,0.01,0,Wunderground v.1.15,2013-02-03 09:19:00,
2013-02-03 04:24:00,25.0,24.0,29.94,NNE,26,0.0,0.0,96,0.00,,,0.01,0,Wunderground v.1.15,2013-02-03 09:24:00,
2013-02-03 04:29:00,25.0,24.0,29.94,NNE,25,0.0,0.0,96,0.00,,,0.01,0,Wunderground v.1.15,2013-02-03 09:29:00,
2013-02-03 04:35:00,25.0,24.0,29.94,NNE,27,0.0,0.0,96,0.00,,,0.01,0,Wunderground v.1.15,2013-02-03 09:35:00,
2013-02-03 04:40:00,24.8,23.8,29.94,NNE,26,0.0,0.0,96,0.00,,,0.01,0,Wunderground v.1.15,2013-02-03 09:40:00,
2013-02-03 04:45:00,24.6,23.9,29.94,NNE,23,0.0,0.0,97,0.00,,,0.01,0,Wunderground v.1.15,2013-02-03 09:45:00,
2013-02-03 04:50:00,24.5,23.8,29.94,NNE,26,0.0,0.0,97,0.00,,,0.01,0,Wunderground v.1.15,2013-02-03 09:50:00,
2013-02-03 04:56:00,24.4,23.7,29.94,NNE,25,0.0,0.0,97,0.00,,,0.01,0,Wunderground v.1.15,2013-02-03 09:56:00,
2013-02-03 05:02:00,24.1,23.4,29.94,NNE,26,0.0,0.0,97,0.00,,,0.01,0,Wunderground v.1.15,2013-02-03 10:02:00,
2013-02-03 05:07:00,24.0,23.5,29.94,NNE,26,0.0,0.0,98,0.00,,,0.01,0,Wunderground v.1.15,2013-02-03 10:07:00,
2013-02-03 05:12:00,24.1,23.6,29.94,NNE,26,0.0,0.0,98,0.00,,,0.01,0,Wunderground v.1.15,2013-02-03 10:12:00,
2013-02-03 05:18:00,24.1,23.6,29.93,NNE,25,0.0,0.0,98,0.00,,,0.01,0,Wunderground v.1.15,2013-02-03 10:18:00,
2013-02-03 05:23:00,24.1,23.6,29.93,NNE,26,0.0,0.0,98,0.00,,,0.01,0,Wunderground v.1.15,2013-02-03 10:23:00,
2013-02-03 05:28:00,24.1,23.6,29.93,NNE,26,0.0,1.0,98,0.00,,,0.01,0,Wunderground v.1.15,2013-02-03 10:28:00,
2013-02-03 05:34:00,24.1,23.6,29.93,NNE,24,0.0,0.0,98,0.00,,,0.01,0,Wunderground v.1.15,2013-02-03 10:34:00,
2013-02-03 05:39:00,24.0,23.3,29.93,NNE,26,0.0,0.0,97,0.00,,,0.01,0,Wunderground v.1.15,2013-02-03 10:39:00,
2013-02-03 05:44:00,23.8,23.3,29.93,NNE,27,0.0,0.0,98,0.00,,,0.01,0,Wunderground v.1.15,2013-02-03 10:44:00,
2013-02-03 05:50:00,23.7,23.2,29.93,NNE,25,0.0,0.0,98,0.00,,,0.01,0,Wunderground v.1.15,2013-02-03 10:50:00,
2013-02-03 05:55:00,23.5,23.0,29.93,NNE,26,0.0,0.0,98,0.00,,,0.01,0,Wunderground v.1.15,2013-02-03 10:55:00,
2013-02-03 06:00:00,23.6,23.4,29.93,NNE,25,0.0,0.0,99,0.00,,,0.01,0,Wunderground v.1.15,2013-02-03 11:00:00,
2013-02-03 06:06:00,23.4,22.9,29.93,NNE,26,0.0,1.0,98,0.00,,,0.01,0,Wunderground v.1.15,2013-02-03 11:06:00,
2013-02-03 06:11:00,23.5,23.3,29.93,NNE,25,0.0,0.0,99,0.00,,,0.01,0,Wunderground v.1.15,2013-02-03 11:11:00,
2013-02-03 06:16:00,23.5,23.3,29.93,NNE,26,0.0,0.0,99,0.00,,,0.01,0,Wunderground v.1.15,2013-02-03 11:16:00,
2013-02-03 06:21:00,23.6,23.4,29.93,NNE,26,0.0,0.0,99,0.00,,,0.01,0,Wunderground v.1.15,2013-02-03 11:21:00,
2013-02-03 06:27:00,23.7,23.5,29.93,NNE,26,0.0,0.0,99,0.00,,,0.01,0,Wunderground v.1.15,2013-02-03 11:27:00,
2013-02-03 06:32:00,23.7,23.2,29.93,NNE,25,0.0,0.0,98,0.00,,,0.01,0,Wunderground v.1.15,2013-02-03 11:32:00,
2013-02-03 06:37:00,23.7,23.2,29.94,NNE,24,0.0,0.0,98,0.00,,,0.01,0,Wunderground v.1.15,2013-02-03 11:37:00,
2013-02-03 06:43:00,23.9,23.4,29.94,NNE,26,0.0,0.0,98,0.00,,,0.01,0,Wunderground v.1.15,2013-02-03 11:43:00,
2013-02-03 06:48:00,23.9,23.4,29.94,NNE,26,0.0,0.0,98,0.00,,,0.01,0,Wunderground v.1.15,2013-02-03 11:48:00,
2013-02-03 06:54:00,23.9,23.4,29.93,NNE,26,0.0,0.0,98,0.00,,,0.01,0,Wunderground v.1.15,2013-02-03 11:54:00,
2013-02-03 06:59:00,23.9,23.2,29.94,NNE,26,0.0,0.0,97,0.00,,,0.01,0,Wunderground v.1.15,2013-02-03 11:59:00,
2013-02-03 07:05:00,24.0,23.5,29.93,NNE,24,0.0,0.0,98,0.00,,,0.01,0,Wunderground v.1.15,2013-02-03 12:05:00,
2013-02-03 07:11:00,24.1,23.4,29.94,NNE,25,0.0,0.0,97,0.00,,,0.01,0,Wunderground v.1.15,2013-02-03 12:11:00,
2013-02-03 07:16:00,24.1,23.4,29.94,NNE,24,0.0,0.0,97,0.00,,,0.01,0,Wunderground v.1.15,2013-02-03 12:16:00,
2013-02-03 07:21:00,23.9,23.2,29.94,NNE,26,0.0,0.0,97,0.00,,,0.01,0,Wunderground v.1.15,2013-02-03 12:21:00,
2013-02-03 07:27:00,23.7,23.0,29.94,NNE,25,0.0,0.0,97,0.00,,,0.01,0,Wunderground v.1.15,2013-02-03 12:27:00,
2013-02-03 07:32:00,23.7,23.2,29.94,NNE,24,0.0,0.0,98,0.00,,,0.01,0,Wunderground v.1.15,2013-02-03 12:32:00,
2013-02-03 07:37:00,23.5,23.0,29.94,NNE,27,0.0,0.0,98,0.00,,,0.01,0,Wunderground v.1.15,2013-02-03 12:37:00,
2013-02-03 07:43:00,23.4,22.9,29.94,NNE,26,0.0,0.0,98,0.00,,,0.01,0,Wunderground v.1.15,2013-02-03 12:43:00,
2013-02-03 07:48:00,23.4,22.9,29.94,NNE,24,0.0,0.0,98,0.00,,,0.01,0,Wunderground v.1.15,2013-02-03 12:48:00,
2013-02-03 07:53:00,23.4,22.9,29.94,NNE,26,0.0,0.0,98,0.00,,,0.01,0,Wunderground v.1.15,2013-02-03 12:53:00,
2013-02-03 07:59:00,23.5,23.0,29.94,NNE,26,0.0,0.0,98,0.00,,,0.01,5,Wunderground v.1.15,2013-02-03 12:59:00,
2013-02-03 08:04:00,23.6,23.1,29.94,NNE,26,0.0,0.0,98,0.00,,,0.01,5,Wunderground v.1.15,2013-02-03 13:04:00,
2013-02-03 08:10:00,23.6,23.1,29.94,NNE,26,0.0,0.0,98,0.00,,,0.01,9,Wunderground v.1.15,2013-02-03 13:10:00,
2013-02-03 08:15:00,23.5,23.0,29.94,NNE,25,0.0,0.0,98,0.00,,,0.01,9,Wunderground v.1.15,2013-02-03 13:15:00,
2013-02-03 08:20:00,23.5,23.0,29.94,NNE,24,0.0,0.0,98,0.00,,,0.01,11,Wunderground v.1.15,2013-02-03 13:20:00,
2013-02-03 08:26:00,23.6,23.1,29.94,NNE,26,0.0,0.0,98,0.00,,,0.01,11,Wunderground v.1.15,2013-02-03 13:26:00,
2013-02-03 08:31:00,23.6,23.1,29.94,NNE,26,0.0,0.0,98,0.00,,,0.01,12,Wunderground v.1.15,2013-02-03 13:31:00,
2013-02-03 08:37:00,23.8,23.3,29.94,NNE,26,0.0,0.0,98,0.00,,,0.01,14,Wunderground v.1.15,2013-02-03 13:37:00,
2013-02-03 08:42:00,23.9,23.4,29.95,NNE,26,0.0,0.0,98,0.00,,,0.01,19,Wunderground v.1.15,2013-02-03 13:42:00,
2013-02-03 08:47:00,24.1,23.6,29.94,NNE,25,0.0,0.0,98,0.00,,,0.02,28,Wunderground v.1.15,2013-02-03 13:47:00,
2013-02-03 08:53:00,24.2,23.5,29.94,NNE,25,0.0,0.0,97,0.00,,,0.02,32,Wunderground v.1.15,2013-02-03 13:53:00,
2013-02-03 08:58:00,24.3,23.6,29.94,NNE,24,0.0,0.0,97,0.00,,,0.02,32,Wunderground v.1.15,2013-02-03 13:58:00,
2013-02-03 09:04:00,24.7,24.0,29.94,NNE,24,0.0,0.0,97,0.00,,,0.02,40,Wunderground v.1.15,2013-02-03 14:04:00,
2013-02-03 09:09:00,25.1,24.4,29.94,NNE,26,0.0,0.0,97,0.00,,,0.02,53,Wunderground v.1.15,2013-02-03 14:09:00,
2013-02-03 09:15:00,25.4,24.4,29.94,NNE,26,0.0,0.0,96,0.00,,,0.02,67,Wunderground v.1.15,2013-02-03 14:15:00,
2013-02-03 09:20:00,25.6,24.6,29.94,NNE,24,0.0,0.0,96,0.00,,,0.02,70,Wunderground v.1.15,2013-02-03 14:20:00,
2013-02-03 09:25:00,25.9,24.9,29.94,NNE,26,0.0,0.0,96,0.00,,,0.02,51,Wunderground v.1.15,2013-02-03 14:25:00,
2013-02-03 09:31:00,26.4,25.4,29.94,NNE,25,0.0,0.0,96,0.00,,,0.02,37,Wunderground v.1.15,2013-02-03 14:31:00,
2013-02-03 09:36:00,26.2,24.7,29.94,NNE,24,0.0,0.0,94,0.00,,,0.02,44,Wunderground v.1.15,2013-02-03 14:36:00,
2013-02-03 09:41:00,25.8,24.3,29.94,NNE,26,0.0,0.0,94,0.00,,,0.02,53,Wunderground v.1.15,2013-02-03 14:41:00,
2013-02-03 09:47:00,25.5,24.3,29.93,NNE,26,0.0,0.0,95,0.00,,,0.02,67,Wunderground v.1.15,2013-02-03 14:47:00,
2013-02-03 09:52:00,25.7,25.0,29.93,NNE,26,0.0,0.0,97,0.00,,,0.02,72,Wunderground v.1.15,2013-02-03 14:52:00,
2013-02-03 09:58:00,26.2,25.2,29.93,NNE,25,0.0,0.0,96,0.00,,,0.02,76,Wunderground v.1.15,2013-02-03 14:58:00,
2013-02-03 10:03:00,26.7,25.5,29.93,NNE,26,0.0,0.0,95,0.00,,,0.02,70,Wunderground v.1.15,2013-02-03 15:03:00,
2013-02-03 10:09:00,27.2,25.7,29.93,NNE,26,0.0,0.0,94,0.00,,,0.02,58,Wunderground v.1.15,2013-02-03 15:09:00,
2013-02-03 10:14:00,27.4,25.9,29.93,South,186,0.0,2.0,94,0.00,,,0.02,49,Wunderground v.1.15,2013-02-03 15:14:00,
2013-02-03 10:19:00,27.3,25.8,29.93,SSW,209,0.0,2.0,94,0.00,,,0.02,47,Wunderground v.1.15,2013-02-03 15:19:00,
2013-02-03 10:25:00,27.5,25.7,29.93,SSW,208,0.0,3.0,93,0.00,,,0.02,54,Wunderground v.1.15,2013-02-03 15:25:00,
2013-02-03 10:30:00,27.7,25.4,29.93,South,190,2.0,2.0,91,0.00,,,0.02,83,Wunderground v.1.15,2013-02-03 15:30:00,
2013-02-03 10:36:00,27.7,24.1,29.93,SSW,213,4.0,9.0,86,0.00,,,0.02,90,Wunderground v.1.15,2013-02-03 15:36:00,
2013-02-03 10:41:00,27.9,23.1,29.93,SW,223,5.0,8.0,82,0.00,,,0.02,97,Wunderground v.1.15,2013-02-03 15:41:00,
2013-02-03 10:46:00,28.3,23.8,29.92,SW,219,5.0,8.0,83,0.00,,,0.02,128,Wunderground v.1.15,2013-02-03 15:46:00,
2013-02-03 10:51:00,28.7,23.9,29.92,SSW,211,3.0,6.0,82,0.00,,,0.02,95,Wunderground v.1.15,2013-02-03 15:51:00,
2013-02-03 10:57:00,29.1,24.3,29.92,South,176,4.0,6.0,82,0.00,,,0.02,88,Wunderground v.1.15,2013-02-03 15:57:00,
2013-02-03 11:03:00,29.3,23.9,29.91,SSW,200,4.0,5.0,80,0.00,,,0.02,95,Wunderground v.1.15,2013-02-03 16:03:00,
2013-02-03 11:08:00,29.3,24.2,29.91,SSW,197,4.0,6.0,81,0.00,,,0.02,93,Wunderground v.1.15,2013-02-03 16:08:00,
2013-02-03 11:13:00,29.3,23.6,29.90,South,187,5.0,8.0,79,0.00,,,0.02,93,Wunderground v.1.15,2013-02-03 16:13:00,
2013-02-03 11:18:00,29.1,23.4,29.90,SSW,205,5.0,8.0,79,0.00,,,0.02,81,Wunderground v.1.15,2013-02-03 16:18:00,
2013-02-03 11:24:00,29.3,23.9,29.90,SW,215,4.0,7.0,80,0.00,,,0.02,111,Wunderground v.1.15,2013-02-03 16:24:00,
2013-02-03 11:29:00,29.5,23.5,29.90,South,188,3.0,7.0,78,0.00,,,0.02,128,Wunderground v.1.15,2013-02-03 16:29:00,
2013-02-03 11:34:00,29.6,23.6,29.90,South,177,4.0,7.0,78,0.00,,,0.02,158,Wunderground v.1.15,2013-02-03 16:34:00,
2013-02-03 11:40:00,29.7,23.7,29.89,SW,218,4.0,4.0,78,0.00,,,0.02,190,Wunderground v.1.15,2013-02-03 16:40:00,
2013-02-03 11:45:00,30.1,23.4,29.89,SW,229,3.0,4.0,76,0.00,,,0.02,218,Wunderground v.1.15,2013-02-03 16:45:00,
2013-02-03 11:51:00,30.4,23.4,29.89,SSW,196,3.0,5.0,75,0.00,,,0.02,221,Wunderground v.1.15,2013-02-03 16:51:00,
2013-02-03 11:56:00,30.7,23.7,29.89,North,360,4.0,10.0,75,0.00,,,0.02,236,Wunderground v.1.15,2013-02-03 16:56:00,
2013-02-03 12:02:00,30.5,22.2,29.88,WSW,244,5.0,5.0,71,0.00,,,0.02,255,Wunderground v.1.15,2013-02-03 17:02:00,
2013-02-03 12:07:00,30.5,22.9,29.88,West,263,5.0,6.0,73,0.00,,,0.02,264,Wunderground v.1.15,2013-02-03 17:07:00,
2013-02-03 12:12:00,30.6,23.3,29.88,WSW,257,3.0,4.0,74,0.00,,,0.02,279,Wunderground v.1.15,2013-02-03 17:12:00,
2013-02-03 12:18:00,30.8,23.8,29.88,WSW,252,3.0,10.0,75,0.00,,,0.02,281,Wunderground v.1.15,2013-02-03 17:18:00,
2013-02-03 12:23:00,30.9,23.3,29.87,WNW,284,4.0,8.0,73,0.00,,,0.02,283,Wunderground v.1.15,2013-02-03 17:23:00,
2013-02-03 12:28:00,31.0,23.7,29.87,WSW,247,4.0,8.0,74,0.00,,,0.02,276,Wunderground v.1.15,2013-02-03 17:28:00,
2013-02-03 12:34:00,31.1,23.8,29.87,West,260,3.0,7.0,74,0.00,,,0.02,292,Wunderground v.1.15,2013-02-03 17:34:00,
2013-02-03 12:39:00,31.2,23.2,29.86,West,275,6.0,12.0,72,0.00,,,0.02,297,Wunderground v.1.15,2013-02-03 17:39:00,
2013-02-03 12:44:00,31.2,24.2,29.86,West,271,7.0,10.0,75,0.00,,,0.02,279,Wunderground v.1.15,2013-02-03 17:44:00,
2013-02-03 12:50:00,31.1,23.1,29.86,WSW,239,5.0,5.0,72,0.00,,,0.02,253,Wunderground v.1.15,2013-02-03 17:50:00,
2013-02-03 12:55:00,31.2,22.9,29.86,West,271,3.0,5.0,71,0.00,,,0.02,271,Wunderground v.1.15,2013-02-03 17:55:00,
2013-02-03 13:00:00,31.2,23.5,29.86,WNW,290,3.0,9.0,73,0.00,,,0.02,232,Wunderground v.1.15,2013-02-03 18:00:00,
2013-02-03 13:06:00,30.9,23.3,29.86,North,360,5.0,10.0,73,0.00,,,0.02,213,Wunderground v.1.15,2013-02-03 18:06:00,
2013-02-03 13:12:00,30.6,22.6,29.85,West,271,6.0,12.0,72,0.00,,,0.02,225,Wunderground v.1.15,2013-02-03 18:12:00,
2013-02-03 13:17:00,30.7,23.4,29.85,West,259,6.0,12.0,74,0.00,,,0.02,269,Wunderground v.1.15,2013-02-03 18:17:00,
2013-02-03 13:22:00,30.7,24.0,29.85,SW,236,6.0,7.0,76,0.00,,,0.02,301,Wunderground v.1.15,2013-02-03 18:22:00,
2013-02-03 13:28:00,30.9,23.6,29.85,SSW,207,4.0,7.0,74,0.00,,,0.02,255,Wunderground v.1.15,2013-02-03 18:28:00,
2013-02-03 13:33:00,30.9,24.2,29.84,WSW,244,5.0,7.0,76,0.00,,,0.02,279,Wunderground v.1.15,2013-02-03 18:33:00,
2013-02-03 13:38:00,31.0,23.4,29.84,WNW,298,5.0,7.0,73,0.00,,,0.02,274,Wunderground v.1.15,2013-02-03 18:38:00,
2013-02-03 13:44:00,30.8,23.8,29.84,SW,217,4.0,6.0,75,0.00,,,0.02,299,Wunderground v.1.15,2013-02-03 18:44:00,
2013-02-03 13:49:00,30.9,23.9,29.84,West,268,5.0,7.0,75,0.00,,,0.02,283,Wunderground v.1.15,2013-02-03 18:49:00,
2013-02-03 13:55:00,30.9,23.9,29.84,West,273,4.0,9.0,75,0.00,,,0.02,239,Wunderground v.1.15,2013-02-03 18:55:00,
2013-02-03 14:00:00,30.7,24.0,29.84,WSW,248,4.0,6.0,76,0.00,,,0.02,352,Wunderground v.1.15,2013-02-03 19:00:00,
2013-02-03 14:06:00,30.7,24.7,29.84,North,360,6.0,12.0,78,0.00,,,0.02,258,Wunderground v.1.15,2013-02-03 19:06:00,
2013-02-03 14:11:00,30.7,24.3,29.83,WNW,284,8.0,12.0,77,0.00,,,0.02,352,Wunderground v.1.15,2013-02-03 19:11:00,
2013-02-03 14:16:00,30.6,24.6,29.84,West,268,9.0,14.0,78,0.00,,,0.02,285,Wunderground v.1.15,2013-02-03 19:16:00,
2013-02-03 14:22:00,30.9,25.2,29.84,SW,217,7.0,8.0,79,0.00,,,0.02,499,Wunderground v.1.15,2013-02-03 19:22:00,
2013-02-03 14:27:00,31.3,25.5,29.84,North,360,5.0,8.0,79,0.00,,,0.02,332,Wunderground v.1.15,2013-02-03 19:27:00,
2013-02-03 14:33:00,31.5,25.7,29.84,West,259,5.0,7.0,79,0.00,,,0.02,237,Wunderground v.1.15,2013-02-03 19:33:00,
2013-02-03 14:38:00,31.5,26.0,29.84,WNW,294,4.0,7.0,80,0.00,,,0.02,204,Wunderground v.1.15,2013-02-03 19:38:00,
2013-02-03 14:43:00,31.4,25.3,29.83,WSW,247,3.0,5.0,78,0.00,,,0.02,258,Wunderground v.1.15,2013-02-03 19:43:00,
2013-02-03 14:48:00,31.4,25.6,29.83,WNW,288,3.0,7.0,79,0.00,,,0.02,309,Wunderground v.1.15,2013-02-03 19:48:00,
2013-02-03 14:54:00,31.4,25.3,29.83,North,360,4.0,8.0,78,0.00,,,0.02,202,Wunderground v.1.15,2013-02-03 19:54:00,
2013-02-03 14:59:00,31.4,25.6,29.84,NNW,343,5.0,8.0,79,0.00,,,0.02,142,Wunderground v.1.15,2013-02-03 19:59:00,
2013-02-03 15:05:00,31.1,24.7,29.84,North,360,2.0,5.0,77,0.00,,,0.02,111,Wunderground v.1.15,2013-02-03 20:05:00,
2013-02-03 15:11:00,30.7,26.1,29.84,WNW,301,4.0,6.0,83,0.00,,,0.02,120,Wunderground v.1.15,2013-02-03 20:11:00,
2013-02-03 15:16:00,30.4,26.1,29.84,WSW,252,6.0,11.0,84,0.00,,,0.02,155,Wunderground v.1.15,2013-02-03 20:16:00,
2013-02-03 15:21:00,30.3,26.3,29.84,WSW,252,5.0,7.0,85,0.00,,,0.02,146,Wunderground v.1.15,2013-02-03 20:21:00,
2013-02-03 15:27:00,30.2,25.7,29.84,WSW,252,5.0,12.0,83,0.00,,,0.02,116,Wunderground v.1.15,2013-02-03 20:27:00,
2013-02-03 15:32:00,30.0,26.0,29.84,NW,306,7.0,9.0,85,0.00,,,0.02,113,Wunderground v.1.15,2013-02-03 20:32:00,
2013-02-03 15:38:00,29.7,25.7,29.85,SW,231,10.0,21.0,85,0.00,,,0.02,113,Wunderground v.1.15,2013-02-03 20:38:00,
2013-02-03 15:43:00,29.2,26.1,29.85,West,279,11.0,16.0,88,0.00,,,0.02,176,Wunderground v.1.15,2013-02-03 20:43:00,
2013-02-03 15:48:00,29.1,25.7,29.85,WSW,252,11.0,22.0,87,0.00,,,0.02,123,Wunderground v.1.15,2013-02-03 20:48:00,
2013-02-03 15:53:00,29.1,25.7,29.85,WNW,295,11.0,15.0,87,0.00,,,0.02,118,Wunderground v.1.15,2013-02-03 20:53:00,
2013-02-03 15:59:00,28.9,25.8,29.85,West,261,9.0,15.0,88,0.00,,,0.02,214,Wunderground v.1.15,2013-02-03 20:59:00,
2013-02-03 16:05:00,29.1,26.3,29.85,North,360,6.0,8.0,89,0.00,,,0.02,211,Wunderground v.1.15,2013-02-03 21:05:00,
2013-02-03 16:10:00,29.3,25.9,29.85,North,360,4.0,4.0,87,0.00,,,0.02,135,Wunderground v.1.15,2013-02-03 21:10:00,
2013-02-03 16:16:00,29.4,26.0,29.86,WSW,248,5.0,6.0,87,0.00,,,0.02,62,Wunderground v.1.15,2013-02-03 21:16:00,
2013-02-03 16:21:00,29.2,25.0,29.85,SW,236,5.0,16.0,84,0.00,,,0.02,51,Wunderground v.1.15,2013-02-03 21:21:00,
2013-02-03 16:27:00,28.9,24.7,29.85,WNW,288,10.0,21.0,84,0.00,,,0.02,44,Wunderground v.1.15,2013-02-03 21:27:00,
2013-02-03 16:32:00,28.7,24.5,29.85,West,263,11.0,11.0,84,0.00,,,0.02,79,Wunderground v.1.15,2013-02-03 21:32:00,
2013-02-03 16:37:00,28.7,24.5,29.86,WNW,292,8.0,11.0,84,0.00,,,0.02,53,Wunderground v.1.15,2013-02-03 21:37:00,
2013-02-03 16:42:00,28.7,24.5,29.86,WNW,291,6.0,13.0,84,0.00,,,0.02,46,Wunderground v.1.15,2013-02-03 21:42:00,
2013-02-03 16:48:00,28.7,23.3,29.86,WSW,257,7.0,17.0,80,0.00,,,0.02,35,Wunderground v.1.15,2013-02-03 21:48:00,
2013-02-03 16:53:00,28.6,22.9,29.86,West,266,10.0,11.0,79,0.00,,,0.02,37,Wunderground v.1.15,2013-02-03 21:53:00,
2013-02-03 16:59:00,28.6,22.9,29.86,West,263,11.0,18.0,79,0.00,,,0.02,37,Wunderground v.1.15,2013-02-03 21:59:00,
2013-02-03 17:05:00,28.5,22.5,29.87,West,262,9.0,13.0,78,0.00,,,0.02,33,Wunderground v.1.15,2013-02-03 22:05:00,
2013-02-03 17:10:00,28.4,21.8,29.87,WSW,250,8.0,8.0,76,0.00,,,0.02,26,Wunderground v.1.15,2013-02-03 22:10:00,
2013-02-03 17:15:00,28.4,22.1,29.87,SW,219,7.0,12.0,77,0.00,,,0.02,18,Wunderground v.1.15,2013-02-03 22:15:00,
2013-02-03 17:21:00,28.2,22.2,29.87,SW,232,9.0,17.0,78,0.00,,,0.02,16,Wunderground v.1.15,2013-02-03 22:21:00,
2013-02-03 17:26:00,28.1,22.1,29.87,WSW,246,10.0,17.0,78,0.00,,,0.02,11,Wunderground v.1.15,2013-02-03 22:26:00,
2013-02-03 17:31:00,28.0,22.3,29.88,SW,217,9.0,10.0,79,0.00,,,0.02,7,Wunderground v.1.15,2013-02-03 22:31:00,
2013-02-03 17:37:00,27.9,22.8,29.88,West,271,8.0,10.0,81,0.00,,,0.02,0,Wunderground v.1.15,2013-02-03 22:37:00,
2013-02-03 17:42:00,27.8,23.0,29.88,SW,215,7.0,7.0,82,0.00,,,0.02,0,Wunderground v.1.15,2013-02-03 22:42:00,
2013-02-03 17:47:00,27.7,22.9,29.88,West,271,5.0,9.0,82,0.00,,,0.02,0,Wunderground v.1.15,2013-02-03 22:47:00,
2013-02-03 17:53:00,27.7,23.8,29.88,NW,320,3.0,6.0,85,0.00,,,0.02,0,Wunderground v.1.15,2013-02-03 22:53:00,
2013-02-03 17:58:00,27.5,23.9,29.89,West,262,6.0,16.0,86,0.00,,,0.02,0,Wunderground v.1.15,2013-02-03 22:58:00,
2013-02-03 18:04:00,27.1,24.3,29.89,WNW,282,9.0,16.0,89,0.00,,,0.02,0,Wunderground v.1.15,2013-02-03 23:04:00,
2013-02-03 18:10:00,26.8,24.0,29.89,WNW,283,6.0,8.0,89,0.00,,,0.02,0,Wunderground v.1.15,2013-02-03 23:10:00,
2013-02-03 18:15:00,26.4,23.9,29.90,West,277,7.0,20.0,90,0.00,,,0.02,0,Wunderground v.1.15,2013-02-03 23:15:00,
2013-02-03 18:20:00,26.3,23.8,29.90,WNW,300,9.0,9.0,90,0.00,,,0.02,0,Wunderground v.1.15,2013-02-03 23:20:00,
2013-02-03 18:25:00,26.2,23.4,29.90,WSW,254,8.0,9.0,89,0.00,,,0.02,0,Wunderground v.1.15,2013-02-03 23:25:00,
2013-02-03 18:31:00,26.1,22.2,29.91,WSW,257,8.0,9.0,85,0.00,,,0.02,0,Wunderground v.1.15,2013-02-03 23:31:00,
2013-02-03 18:36:00,26.1,21.9,29.91,WSW,253,12.0,24.0,84,0.00,,,0.02,0,Wunderground v.1.15,2013-02-03 23:36:00,
2013-02-03 18:42:00,26.0,21.5,29.91,West,259,14.0,16.0,83,0.00,,,0.02,0,Wunderground v.1.15,2013-02-03 23:42:00,
2013-02-03 18:47:00,26.0,21.5,29.92,SE,146,10.0,16.0,83,0.00,,,0.02,0,Wunderground v.1.15,2013-02-03 23:47:00,
2013-02-03 18:53:00,25.9,21.2,29.92,West,260,8.0,11.0,82,0.00,,,0.02,0,Wunderground v.1.15,2013-02-03 23:53:00,
2013-02-03 18:58:00,25.9,21.2,29.92,WSW,252,8.0,13.0,82,0.00,,,0.02,0,Wunderground v.1.15,2013-02-03 23:58:00,
2013-02-03 19:04:00,25.9,21.4,29.93,WSW,249,7.0,10.0,83,0.00,,,0.02,0,Wunderground v.1.15,2013-02-04 00:04:00,
2013-02-03 19:09:00,25.9,21.2,29.93,SW,229,8.0,14.0,82,0.00,,,0.02,0,Wunderground v.1.15,2013-02-04 00:09:00,
2013-02-03 19:15:00,25.8,21.1,29.93,West,273,8.0,9.0,82,0.00,,,0.02,0,Wunderground v.1.15,2013-02-04 00:15:00,
2013-02-03 19:20:00,25.7,21.0,29.94,WNW,302,8.0,8.0,82,0.00,,,0.02,0,Wunderground v.1.15,2013-02-04 00:20:00,
2013-02-03 19:25:00,25.6,20.9,29.94,SW,224,9.0,11.0,82,0.00,,,0.02,0,Wunderground v.1.15,2013-02-04 00:25:00,
2013-02-03 19:31:00,25.5,20.8,29.94,West,281,8.0,18.0,82,0.00,,,0.02,0,Wunderground v.1.15,2013-02-04 00:31:00,
2013-02-03 19:36:00,25.3,20.9,29.95,WSW,254,7.0,18.0,83,0.00,,,0.02,0,Wunderground v.1.15,2013-02-04 00:36:00,
2013-02-03 19:41:00,25.2,20.2,29.95,WSW,248,8.0,15.0,81,0.00,,,0.02,0,Wunderground v.1.15,2013-02-04 00:41:00,
2013-02-03 19:47:00,25.0,19.1,29.95,WNW,294,10.0,18.0,78,0.00,,,0.02,0,Wunderground v.1.15,2013-02-04 00:47:00,
2013-02-03 19:52:00,24.8,18.9,29.96,West,275,11.0,12.0,78,0.00,,,0.02,0,Wunderground v.1.15,2013-02-04 00:52:00,
2013-02-03 19:58:00,24.6,18.7,29.96,WNW,287,12.0,17.0,78,0.00,,,0.02,0,Wunderground v.1.15,2013-02-04 00:58:00,
2013-02-03 20:04:00,24.4,18.2,29.96,North,360,12.0,17.0,77,0.00,,,0.02,0,Wunderground v.1.15,2013-02-04 01:04:00,
2013-02-03 20:09:00,24.3,18.4,29.96,West,259,9.0,18.0,78,0.00,,,0.02,0,Wunderground v.1.15,2013-02-04 01:09:00,
2013-02-03 20:14:00,24.2,18.0,29.96,West,266,8.0,13.0,77,0.00,,,0.02,0,Wunderground v.1.15,2013-02-04 01:14:00,
2013-02-03 20:20:00,24.1,18.2,29.96,West,273,10.0,10.0,78,0.00,,,0.02,0,Wunderground v.1.15,2013-02-04 01:20:00,
2013-02-03 20:25:00,23.9,18.0,29.96,West,271,9.0,11.0,78,0.00,,,0.02,0,Wunderground v.1.15,2013-02-04 01:25:00,
2013-02-03 20:30:00,23.8,17.9,29.97,South,180,6.0,6.0,78,0.00,,,0.02,0,Wunderground v.1.15,2013-02-04 01:30:00,
2013-02-03 20:36:00,23.7,18.4,29.97,WSW,245,6.0,11.0,80,0.00,,,0.02,0,Wunderground v.1.15,2013-02-04 01:36:00,
2013-02-03 20:41:00,23.6,18.6,29.97,SW,219,8.0,21.0,81,0.00,,,0.02,0,Wunderground v.1.15,2013-02-04 01:41:00,
2013-02-03 20:47:00,23.6,18.6,29.97,WSW,257,7.0,21.0,81,0.00,,,0.02,0,Wunderground v.1.15,2013-02-04 01:47:00,
2013-02-03 20:52:00,23.5,18.2,29.97,North,360,7.0,8.0,80,0.00,,,0.02,0,Wunderground v.1.15,2013-02-04 01:52:00,
2013-02-03 20:57:00,23.5,17.9,29.98,WNW,296,6.0,8.0,79,0.00,,,0.02,0,Wunderground v.1.15,2013-02-04 01:57:00,
2013-02-03 21:03:00,23.5,17.6,29.97,West,269,5.0,9.0,78,0.00,,,0.02,0,Wunderground v.1.15,2013-02-04 02:03:00,
2013-02-03 21:09:00,23.4,17.3,29.97,WNW,292,10.0,19.0,77,0.00,,,0.02,0,Wunderground v.1.15,2013-02-04 02:09:00,
2013-02-03 21:14:00,23.5,17.3,29.98,West,274,11.0,16.0,77,0.00,,,0.02,0,Wunderground v.1.15,2013-02-04 02:14:00,
2013-02-03 21:20:00,23.5,17.3,29.98,WSW,251,11.0,11.0,77,0.00,,,0.02,0,Wunderground v.1.15,2013-02-04 02:20:00,
2013-02-03 21:25:00,23.5,17.3,29.98,WNW,296,10.0,19.0,77,0.00,,,0.02,0,Wunderground v.1.15,2013-02-04 02:25:00,
2013-02-03 21:30:00,23.4,16.9,29.98,SW,226,13.0,13.0,76,0.00,,,0.02,0,Wunderground v.1.15,2013-02-04 02:30:00,
2013-02-03 21:35:00,23.3,17.2,29.99,West,267,17.0,20.0,77,0.00,,,0.02,0,Wunderground v.1.15,2013-02-04 02:35:00,
2013-02-03 21:41:00,23.1,16.7,29.99,West,274,17.0,31.0,76,0.00,,,0.02,0,Wunderground v.1.15,2013-02-04 02:41:00,
2013-02-03 21:46:00,23.0,16.6,29.99,WSW,244,14.0,31.0,76,0.00,,,0.02,0,Wunderground v.1.15,2013-02-04 02:46:00,
2013-02-03 21:52:00,22.8,16.4,30.00,West,280,13.0,31.0,76,0.00,,,0.02,0,Wunderground v.1.15,2013-02-04 02:52:00,
2013-02-03 21:57:00,22.6,15.9,30.00,West,271,15.0,31.0,75,0.00,,,0.02,0,Wunderground v.1.15,2013-02-04 02:57:00,
2013-02-03 22:03:00,22.4,15.7,30.00,WNW,285,15.0,17.0,75,0.00,,,0.02,0,Wunderground v.1.15,2013-02-04 03:03:00,
2013-02-03 22:08:00,22.3,15.3,30.00,SW,229,13.0,21.0,74,0.00,,,0.02,0,Wunderground v.1.15,2013-02-04 03:08:00,
2013-02-03 22:14:00,22.1,15.4,30.00,West,265,12.0,21.0,75,0.00,,,0.02,0,Wunderground v.1.15,2013-02-04 03:14:00,
2013-02-03 22:19:00,21.9,15.5,30.01,NW,309,12.0,21.0,76,0.00,,,0.02,0,Wunderground v.1.15,2013-02-04 03:19:00,
2013-02-03 22:24:00,21.7,15.3,30.01,NW,305,12.0,25.0,76,0.00,,,0.02,0,Wunderground v.1.15,2013-02-04 03:24:00,
2013-02-03 22:30:00,21.5,15.1,30.01,WNW,292,10.0,10.0,76,0.00,,,0.02,0,Wunderground v.1.15,2013-02-04 03:30:00,
2013-02-03 22:35:00,21.4,15.0,30.01,SW,214,11.0,21.0,76,0.00,,,0.02,0,Wunderground v.1.15,2013-02-04 03:35:00,
2013-02-03 22:41:00,21.3,14.9,30.01,West,261,13.0,26.0,76,0.00,,,0.02,0,Wunderground v.1.15,2013-02-04 03:41:00,
2013-02-03 22:46:00,21.1,14.7,30.01,WNW,299,12.0,26.0,76,0.00,,,0.02,0,Wunderground v.1.15,2013-02-04 03:46:00,
2013-02-03 22:51:00,21.0,14.3,30.02,SW,229,11.0,13.0,75,0.00,,,0.02,0,Wunderground v.1.15,2013-02-04 03:51:00,
2013-02-03 22:56:00,20.8,14.4,30.02,WNW,286,10.0,17.0,76,0.00,,,0.02,0,Wunderground v.1.15,2013-02-04 03:56:00,
2013-02-03 23:02:00,20.7,14.3,30.02,WNW,290,10.0,18.0,76,0.00,,,0.02,0,Wunderground v.1.15,2013-02-04 04:02:00,
2013-02-03 23:08:00,20.6,13.9,30.02,West,274,11.0,18.0,75,0.00,,,0.02,0,Wunderground v.1.15,2013-02-04 04:08:00,
2013-02-03 23:13:00,20.6,14.2,30.02,WNW,286,9.0,22.0,76,0.00,,,0.02,0,Wunderground v.1.15,2013-02-04 04:13:00,
2013-02-03 23:19:00,20.6,14.5,30.03,NW,309,8.0,22.0,77,0.00,,,0.02,0,Wunderground v.1.15,2013-02-04 04:19:00,
2013-02-03 23:24:00,20.6,14.2,30.03,NW,321,7.0,14.0,76,0.00,,,0.02,0,Wunderground v.1.15,2013-02-04 04:24:00,
2013-02-03 23:29:00,20.5,13.8,30.03,NW,313,6.0,14.0,75,0.00,,,0.02,0,Wunderground v.1.15,2013-02-04 04:29:00,
2013-02-03 23:34:00,20.5,14.1,30.03,NNW,327,6.0,11.0,76,0.00,,,0.02,0,Wunderground v.1.15,2013-02-04 04:34:00,
2013-02-03 23:40:00,20.3,13.9,30.04,WNW,290,5.0,14.0,76,0.00,,,0.02,0,Wunderground v.1.15,2013-02-04 04:40:00,
2013-02-03 23:45:00,20.3,13.6,30.04,NNW,331,7.0,19.0,75,0.00,,,0.02,0,Wunderground v.1.15,2013-02-04 04:45:00,
2013-02-03 23:51:00,20.2,13.5,30.04,NW,318,11.0,15.0,75,0.00,,,0.02,0,Wunderground v.1.15,2013-02-04 04:51:00,
2013-02-03 23:56:00,20.2,13.5,30.04,West,271,10.0,15.0,75,0.00,,,0.02,0,Wunderground v.1.15,2013-02-04 04:56:00,